Location: Joffre
(52.3362°N, 113.5373°W)
Time: 21:57:15
(UTC+00:00)

N. Korean satellite - Visible Passes

Search period start: 02 December 2021 00:00
Search period end: 12 December 2021 00:00
Orbit: 447 x 495 km, 97.3° (Epoch: 02 December)

Date Brightness Start Highest point End Pass type
(mag) Time Alt. Az. Time Alt. Az. Time Alt. Az.
02 Dec 9.3 00:45:39 10° SW 00:48:27 22° W 00:51:15 10° NW visible
02 Dec 9.2 12:04:35 10° NE 12:07:03 19° E 12:09:30 10° SE visible
02 Dec 6.9 13:37:14 10° N 13:40:24 37° WNW 13:43:33 10° SW visible
03 Dec 7.9 00:16:25 10° S 00:19:48 43° W 00:23:10 10° NNW visible
03 Dec 6.2 13:08:33 10° NNE 13:11:59 81° WNW 13:15:21 10° SSW visible
04 Dec 7.5 12:40:08 10° NNE 12:43:25 45° E 12:46:41 10° S visible
04 Dec 7.9 14:14:04 10° NNW 14:16:19 17° WNW 14:18:33 10° WSW visible
05 Dec 9.6 00:53:41 10° SW 00:56:10 18° W 00:58:39 10° NW visible
05 Dec 8.9 12:12:01 10° NE 12:14:45 22° E 12:17:28 10° SSE visible
05 Dec 7.1 13:44:57 10° N 13:48:00 31° WNW 13:51:01 10° SW visible
06 Dec 8.4 00:24:13 10° SSW 00:27:28 35° W 00:30:42 10° NNW visible
06 Dec 9.9 11:44:47 10° ENE 11:45:57 11° E 11:47:05 10° ESE visible
06 Dec 6.3 13:16:11 10° N 13:19:34 65° WNW 13:22:55 10° SSW visible
07 Dec 7.0 12:47:39 10° NNE 12:51:00 56° E 12:54:20 10° S visible
07 Dec 8.1 14:21:55 10° NNW 14:23:49 14° WNW 14:25:43 10° W visible
08 Dec 9.7 01:01:43 10° SW 01:03:48 15° W 01:05:53 10° NW visible
08 Dec 8.6 12:19:24 10° NE 12:22:20 26° E 12:25:15 10° SSE visible
08 Dec 7.4 13:52:37 10° N 13:55:29 26° WNW 13:58:21 10° SW visible
09 Dec 8.7 00:31:57 10° SSW 00:35:02 29° W 00:38:06 10° NNW visible
09 Dec 9.6 11:51:44 10° ENE 11:53:32 14° E 11:55:19 10° ESE visible
09 Dec 6.4 13:23:44 10° N 13:27:03 52° WNW 13:30:21 10° SSW visible
10 Dec 7.1 00:02:55 10° S 00:06:21 61° WSW 00:09:48 10° NNW visible
10 Dec 7.4 12:55:06 10° NNE 13:00:16 26° S 13:01:52 10° S visible
10 Dec 8.3 14:29:46 10° NNW 14:31:12 12° WNW 14:31:25 12° WNW visible
11 Dec 9.8 01:09:48 10° WSW 01:11:21 12° W 01:12:53 10° WNW visible
11 Dec 8.9 12:26:43 10° NNE 12:32:05 16° SSE 12:32:54 10° SSE visible
11 Dec 7.9 14:00:12 10° NNW 14:06:12 - WSW 14:01:54 19° NW visible
